This is the latest recevied weather packets stored in our database for station/object R1CBW-13. If no packets are shown the sender has not sent any weather packets the latest 10 day(s).
| Time | Temp. | Humidity | Pressure | Rain* | Wind** | Luminosity | Snow |
|---|---|---|---|---|---|---|---|
| 1777393421 | 2.78° C | 58% | 1013.8 hPa | 0 mm | - | - | - |
| 1777393361 | 3.33° C | 59% | 1013.7 hPa | 0 mm | - | - | - |
| 1777393301 | 2.78° C | 59% | 1013.6 hPa | 0 mm | - | - | - |
| 1777393241 | 2.78° C | 58% | 1013.7 hPa | 0 mm | - | - | - |
| 1777393181 | 2.78° C | 59% | 1013.7 hPa | 0 mm | - | - | - |
| 1777393121 | 2.78° C | 58% | 1013.6 hPa | 0 mm | - | - | - |
| 1777393061 | 3.33° C | 57% | 1013.6 hPa | 0 mm | - | - | - |
| 1777393001 | 3.33° C | 58% | 1013.6 hPa | 0 mm | - | - | - |
| 1777392941 | 2.78° C | 59% | 1013.6 hPa | 0 mm | - | - | - |
| 1777392881 | 2.78° C | 59% | 1013.6 hPa | 0 mm | - | - | - |
| 1777392821 | 2.78° C | 59% | 1013.7 hPa | 0 mm | - | - | - |
| 1777392761 | 2.78° C | 57% | 1013.7 hPa | 0 mm | - | - | - |
| 1777392701 | 3.89° C | 56% | 1013.6 hPa | 0 mm | - | - | - |
| 1777392641 | 3.89° C | 57% | 1013.5 hPa | 0 mm | - | - | - |
| 1777392581 | 3.33° C | 58% | 1013.6 hPa | 0 mm | - | - | - |
| 1777392521 | 2.78° C | 60% | 1013.9 hPa | 0 mm | - | - | - |
| 1777392461 | 3.33° C | 59% | 1013.5 hPa | 0 mm | - | - | - |
| 1777392401 | 2.78° C | 60% | 1013.7 hPa | 0 mm | - | - | - |
| 1777392341 | 2.78° C | 60% | 1013.5 hPa | 0 mm | - | - | - |
| 1777392281 | 3.33° C | 58% | 1013.6 hPa | 0 mm | - | - | - |
| 1777392221 | 3.33° C | 59% | 1013.6 hPa | 0 mm | - | - | - |
| 1777392161 | 3.33° C | 59% | 1013.7 hPa | 0 mm | - | - | - |
| 1777392101 | 3.33° C | 59% | 1013.6 hPa | 0 mm | - | - | - |
| 1777392041 | 2.78° C | 61% | 1013.6 hPa | 0 mm | - | - | - |
| 1777391981 | 2.22° C | 60% | 1013.6 hPa | 0 mm | - | - | - |
* Rain latest hour (hover to see other rain measurements)
** Current wind speed in m/s (hover to see current wind gust speed)